Location: Peterborough
(44.3091°N, 78.3197°W)
Time: 08:05:58
(UTC-04:00)

Vanguard 3 - Pass Details

Date: 26 February 2024
Orbit: 510 x 3234 km, 33.3° (Epoch: 24 April)

Event Time Altitude Azimuth Distance (km) Brightness Sun altitude
Rises 23:29:19 0° 265° (W) 7,181 12.1 -52.2°
Reaches altitude 10° 23:34:19 10° 261° (W) 6,171 11.6 -52.5°
Enters shadow 23:42:50 31° 250° (WSW) 4,488 10.7 -53.0°
